Weather History for Glencoe, MN

Change the Weather History Date:

Saturday, October 5, 2013

  Actual Average (KHCD) Record (KHCD)
Temperature  
Mean Temperature 49 °F -  
Max Temperature 59 °F 65 °F 87 °F (1963)
Min Temperature 39 °F 40 °F 28 °F (1988)
Degree Days  
Heating Degree Days 16    
Moisture  
Dew Point 45 °F    
Average Humidity 78    
Maximum Humidity 90    
Minimum Humidity 55    
Precipitation  
Precipitation 0.01 in - - ()
Sea Level Pressure  
Sea Level Pressure 29.78 in    
Wind  
Wind Speed 8 mph (SE)    
Max Wind Speed 14 mph    
Max Gust Speed 20 mph    
Visibility 9 miles    
Events Rain    
Averages and records for this station are not official NWS values.
T = Trace of Precipitation, MM = Missing Value Source: NWS Daily Summary

Daily Weather History Graph

Daily Weather History Graph

Search for Another Location

Airport:

Trip Planner

Search our weather history database for the weather conditions in past years. The results will help you decide how hot, cold, wet, or windy it might be!

Date:

Astronomy

Oct. 05, 2013 Rise Set
Actual Time 7:19 AM CDT 6:49 PM CDT
Civil Twilight 6:50 AM CDT 7:18 PM CDT
Nautical Twilight 6:16 AM CDT 7:51 PM CDT
Astronomical Twilight 5:42 AM CDT 8:26 PM CDT
Moon 8:02 AM CDT (10/5) 7:04 PM CDT (10/5)
Length of Visible Light 12h 27m
Length of Day
11h 29m
New Moon, 1% of the Moon is Illuminated
Oct 5
New Moon
Oct 11
First Quarter
Oct 18
Full
Oct 26
Last Quarter
Nov 3
New

Hourly Weather History & Observations

Time (CDT) Temp. Windchill Dew Point Humidity Pressure Visibility Wind Dir Wind Speed Gust Speed Precip Events Conditions
12:12 AM 58.1 °F - 54.9 °F 89% 29.78 in 10.0 mi ENE 13.8 mph 19.6 mph N/A   Overcast
12:33 AM 58.5 °F - 55.4 °F 90% 29.78 in 10.0 mi East 12.7 mph 18.4 mph N/A   Overcast
12:52 AM 58.6 °F - 55.4 °F 89% 29.79 in 10.0 mi ENE 11.5 mph 17.3 mph N/A   Overcast
1:13 AM 58.8 °F - 55.4 °F 88% 29.78 in 10.0 mi ENE 11.5 mph 17.3 mph N/A   Overcast
1:33 AM 59.0 °F - 55.4 °F 88% 29.77 in 10.0 mi ENE 9.2 mph - N/A   Overcast
1:53 AM 59.0 °F - 55.2 °F 87% 29.77 in 10.0 mi East 11.5 mph - N/A   Overcast
2:13 AM 59.0 °F - 55.4 °F 88% 29.77 in 10.0 mi East 10.4 mph 18.4 mph N/A   Overcast
2:32 AM 59.0 °F - 55.4 °F 88% 29.77 in 10.0 mi East 10.4 mph - N/A   Overcast
2:53 AM 59.2 °F - 55.4 °F 87% 29.77 in 10.0 mi East 9.2 mph - N/A   Overcast
3:13 AM 59.2 °F - 55.6 °F 88% 29.76 in 10.0 mi East 11.5 mph - N/A   Overcast
3:33 AM 59.4 °F - 55.9 °F 88% 29.76 in 10.0 mi East 10.4 mph - N/A   Overcast
3:53 AM 59.4 °F - 55.9 °F 88% 29.75 in 7.0 mi East 9.2 mph - N/A   Overcast
4:13 AM 59.4 °F - 56.1 °F 89% 29.76 in 7.0 mi East 6.9 mph - N/A   Overcast
4:32 AM 59.4 °F - 56.3 °F 90% 29.76 in 7.0 mi East 6.9 mph - N/A   Overcast
4:52 AM 59.5 °F - 56.3 °F 89% 29.77 in 5.0 mi East 8.1 mph - N/A   Overcast
5:13 AM 59.7 °F - 56.5 °F 89% 29.76 in 4.0 mi East 8.1 mph - N/A   Overcast
5:32 AM 59.9 °F - 56.7 °F 89% 29.77 in 2.5 mi East 8.1 mph - N/A   Overcast
5:53 AM 59.9 °F - 56.8 °F 90% 29.76 in 2.0 mi ESE 12.7 mph 17.3 mph N/A   Drizzle
6:13 AM 56.1 °F - 52.9 °F 89% 29.78 in 2.5 mi South 8.1 mph - N/A   Drizzle
6:33 AM 55.4 °F - 52.0 °F 88% 29.78 in 10.0 mi South 6.9 mph - N/A   Overcast
6:52 AM 52.5 °F - 48.6 °F 86% 29.79 in 10.0 mi South 5.8 mph - N/A   Overcast
7:13 AM 51.8 °F - 47.5 °F 85% 29.79 in 10.0 mi South 6.9 mph - N/A   Mostly Cloudy
7:32 AM 50.0 °F - 45.9 °F 86% 29.80 in 10.0 mi Calm Calm - N/A   Scattered Clouds
7:53 AM 48.9 °F - 44.4 °F 84% 29.82 in 10.0 mi SSW 8.1 mph - N/A   Clear
8:13 AM 48.4 °F - 43.3 °F 83% 29.84 in 10.0 mi SSW 6.9 mph - N/A   Clear
8:33 AM 47.7 °F - 39.7 °F 74% 29.83 in 10.0 mi SSW 8.1 mph - N/A   Clear
8:53 AM 48.2 °F - 39.9 °F 73% 29.83 in 10.0 mi SSW 8.1 mph - N/A   Clear
9:12 AM 48.2 °F - 39.2 °F 71% 29.84 in 10.0 mi SSW 9.2 mph - N/A   Clear
9:33 AM 49.1 °F - 38.7 °F 67% 29.83 in 10.0 mi SSW 6.9 mph - N/A   Clear
9:53 AM 50.0 °F - 39.6 °F 67% 29.83 in 10.0 mi SSW 6.9 mph - N/A   Clear
10:12 AM 50.5 °F - 40.5 °F 68% 29.83 in 10.0 mi SSW 6.9 mph - N/A   Clear
10:33 AM 51.3 °F - 41.0 °F 68% 29.83 in 10.0 mi SSE 6.9 mph - N/A   Clear
10:53 AM 52.0 °F - 41.2 °F 67% 29.83 in 10.0 mi South 6.9 mph - N/A   Clear
11:12 AM 52.0 °F - 41.2 °F 67% 29.82 in 10.0 mi SSE 5.8 mph - N/A   Clear
11:33 AM 52.5 °F - 39.7 °F 62% 29.82 in 10.0 mi South 5.8 mph - N/A   Clear
11:53 AM 53.4 °F - 39.7 °F 60% 29.82 in 10.0 mi South 6.9 mph - N/A   Scattered Clouds
12:12 PM 55.4 °F - 39.6 °F 55% 29.80 in 10.0 mi ESE 8.1 mph - N/A   Clear
12:33 PM 54.5 °F - 39.9 °F 58% 29.80 in 10.0 mi SE 4.6 mph - N/A   Scattered Clouds
12:53 PM 54.1 °F - 38.8 °F 56% 29.80 in 10.0 mi SE 6.9 mph - N/A   Mostly Cloudy
1:13 PM 54.7 °F - 38.7 °F 55% 29.80 in 10.0 mi SSE 6.9 mph - N/A   Mostly Cloudy
1:32 PM 53.8 °F - 37.9 °F 55% 29.79 in 10.0 mi SE 8.1 mph - N/A   Overcast
1:53 PM 53.8 °F - 39.4 °F 58% 29.78 in 10.0 mi SE 6.9 mph - N/A   Overcast
2:12 PM 52.7 °F - 41.7 °F 66% 29.78 in 10.0 mi SE 5.8 mph - N/A   Light Drizzle
2:33 PM 51.3 °F - 41.2 °F 68% 29.78 in 10.0 mi SE 6.9 mph - 0.01 in Rain Light Rain
2:53 PM 50.9 °F - 43.0 °F 74% 29.78 in 10.0 mi SSE 5.8 mph - 0.01 in   Overcast
3:13 PM 50.9 °F - 40.8 °F 68% 29.77 in 10.0 mi SSE 3.5 mph - N/A   Overcast
3:33 PM 51.3 °F - 40.8 °F 67% 29.77 in 10.0 mi South 3.5 mph - N/A   Overcast
3:53 PM 51.1 °F - 39.0 °F 63% 29.78 in 10.0 mi South 6.9 mph - N/A   Overcast
4:12 PM 51.1 °F - 39.2 °F 64% 29.78 in 10.0 mi South 9.2 mph - N/A   Overcast
4:33 PM 51.1 °F - 39.0 °F 63% 29.77 in 10.0 mi SSW 3.5 mph - N/A   Overcast
4:53 PM 50.9 °F - 39.4 °F 65% 29.77 in 10.0 mi Calm Calm - N/A Rain Light Rain
5:13 PM 50.9 °F - 40.8 °F 68% 29.79 in 10.0 mi Calm Calm - N/A   Overcast
5:33 PM 50.5 °F - 38.8 °F 64% 29.78 in 10.0 mi South 4.6 mph - N/A   Overcast
5:53 PM 49.1 °F - 41.0 °F 74% 29.77 in 10.0 mi Calm Calm - N/A Rain Light Rain
6:13 PM 48.4 °F - 42.1 °F 79% 29.76 in 10.0 mi NE 3.5 mph - N/A   Overcast
6:33 PM 48.4 °F - 42.1 °F 79% 29.77 in 10.0 mi Calm Calm - N/A Rain Light Rain
6:52 PM 48.6 °F - 42.8 °F 80% 29.77 in 10.0 mi Calm Calm - N/A   Overcast
7:13 PM 48.2 °F - 43.0 °F 82% 29.76 in 10.0 mi Calm Calm - N/A   Scattered Clouds
7:33 PM 47.3 °F - 42.6 °F 84% 29.76 in 10.0 mi Calm Calm - N/A   Scattered Clouds
7:53 PM 46.0 °F - 41.2 °F 83% 29.75 in 10.0 mi Calm Calm - N/A   Clear
8:12 PM 45.0 °F - 41.0 °F 86% 29.76 in 10.0 mi Calm Calm - N/A   Clear
8:33 PM 42.8 °F - 38.7 °F 85% 29.75 in 10.0 mi Calm Calm - N/A   Clear
8:53 PM 43.2 °F - 39.9 °F 88% 29.75 in 10.0 mi Calm Calm - N/A   Clear
9:13 PM 42.6 °F - 39.4 °F 88% 29.75 in 10.0 mi Calm Calm - N/A   Clear
9:33 PM 42.6 °F - 39.6 °F 89% 29.76 in 10.0 mi Calm Calm - N/A   Clear
9:53 PM 42.1 °F - 39.2 °F 90% 29.77 in 2.5 mi Calm Calm - N/A   Clear
10:13 PM 41.9 °F - 39.2 °F 90% 29.77 in 7.0 mi Calm Calm - N/A   Clear
10:32 PM 41.4 °F - 38.7 °F 90% 29.77 in 5.0 mi Calm Calm - N/A   Clear
10:53 PM 40.5 °F - 37.6 °F 89% 29.76 in 10.0 mi Calm Calm - N/A   Clear
11:13 PM 40.3 °F - 37.0 °F 88% 29.75 in 10.0 mi Calm Calm - N/A   Clear
11:33 PM 39.7 °F 35.6 °F 36.7 °F 89% 29.76 in 10.0 mi NNW 5.8 mph - N/A   Clear
11:53 PM 40.1 °F - 37.0 °F 89% 29.75 in 10.0 mi Calm Calm - N/A   Clear